KJ4AJP Weather Reports


Display with metric or nautical units.
time (UTC)temp
F
wind
direction
speed
MPH
gust
MPH
rain 1hr
in
rain 24hr
in
rain mn
in
humidity
%
barometer
mb
20260510175638 83 32 1.0 1.0 0.00 0.00 0.00 45 1016.0
20260510175134 84 53 1.0 2.0 0.00 0.00 0.00 45 1016.3
20260510174632 85 48 0.0 1.0 0.00 0.00 0.00 45 1016.0
20260510174130 84 56 0.0 0.0 0.00 0.00 0.00 48 1016.3
20260510173625 83 54 0.0 0.0 0.00 0.00 0.00 48 1016.3
20260510173121 83 40 1.0 1.0 0.00 0.00 0.00 46 1016.4
20260510172617 83 51 0.0 0.0 0.00 0.00 0.00 49 1016.3
20260510172114 83 41 1.0 1.0 0.00 0.00 0.00 46 1016.3
20260510171610 83 73 1.0 1.0 0.00 0.00 0.00 44 1016.5
20260510171108 82 51 0.0 0.0 0.00 0.00 0.00 50 1016.5
20260510170604 82 55 0.0 0.0 0.00 0.00 0.00 47 1016.7
20260510170101 84 157 2.0 3.0 0.00 0.00 0.00 44 1016.9
20260510165556 83 52 0.0 0.0 0.00 0.00 0.00 51 1016.9
20260510165052 83 45 0.0 1.0 0.00 0.00 0.00 51 1016.7
20260510164550 83 55 0.0 0.0 0.00 0.00 0.00 48 1016.7
20260510164046 82 54 0.0 0.0 0.00 0.00 0.00 50 1016.6
20260510163542 82 66 0.0 0.0 0.00 0.00 0.00 48 1016.6
20260510163038 81 70 0.0 0.0 0.00 0.00 0.00 47 1016.7
20260510162533 81 58 0.0 0.0 0.00 0.00 0.00 48 1016.8
20260510162031 82 33 1.0 2.0 0.00 0.00 0.00 48 1016.7
20260510161526 82 59 0.0 0.0 0.00 0.00 0.00 48 1016.8
20260510161023 80 52 0.0 0.0 0.00 0.00 0.00 46 1016.8
20260510160515 79 51 0.0 1.0 0.00 0.00 0.00 52 1016.6
20260510160014 79 117 1.0 1.0 0.00 0.00 0.00 48 1016.8
20260510155510 79 327 2.0 2.0 0.00 0.00 0.00 49 1016.6
20260510155007 78 98 1.0 1.0 0.00 0.00 0.00 49 1016.7
20260510154502 78 48 0.0 0.0 0.00 0.00 0.00 51 1016.6
20260510154001 78 42 1.0 1.0 0.00 0.00 0.00 53 1016.7
20260510153458 77 46 1.0 1.0 0.00 0.00 0.00 53 1016.7
20260510152955 77 212 2.0 2.0 0.00 0.00 0.00 52 1016.6
20260510152452 77 56 0.0 1.0 0.00 0.00 0.00 55 1016.5
20260510151948 77 26 1.0 1.0 0.00 0.00 0.00 54 1016.5
20260510151446 77 97 1.0 2.0 0.00 0.00 0.00 58 1016.3
20260510150942 77 36 0.0 1.0 0.00 0.00 0.00 52 1016.4
20260510150438 78 272 2.0 2.0 0.00 0.00 0.00 56 1016.1
20260510145934 77 43 0.0 0.0 0.00 0.00 0.00 53 1016.0
20260510145431 77 53 0.0 0.0 0.00 0.00 0.00 56 1016.0
20260510144927 77 40 0.0 0.0 0.00 0.00 0.00 55 1016.1
20260510144424 75 62 0.0 1.0 0.00 0.00 0.00 57 1016.1
20260510143919 74 40 1.0 2.0 0.00 0.00 0.00 61 1016.0
20260510143415 74 32 2.0 2.0 0.00 0.00 0.00 58 1016.1
20260510142913 72 50 0.0 0.0 0.00 0.00 0.00 65 1015.9
20260510142410 72 271 3.0 3.0 0.00 0.00 0.00 60 1015.8
20260510141906 72 24 1.0 1.0 0.00 0.00 0.00 60 1016.0
20260510141403 71 77 1.0 1.0 0.00 0.00 0.00 63 1016.0
20260510140900 71 47 0.0 1.0 0.00 0.00 0.00 65 1015.7
20260510140356 70 42 1.0 1.0 0.00 0.00 0.00 66 1016.0
20260510135854 69 63 0.0 0.0 0.00 0.00 0.00 69 1015.8
20260510135350 69 212 2.0 3.0 0.00 0.00 0.00 71 1016.0
20260510134848 68 230 2.0 2.0 0.00 0.00 0.00 71 1015.9
20260510134345 68 60 0.0 0.0 0.00 0.00 0.00 74 1015.9
20260510133841 67 72 0.0 1.0 0.00 0.00 0.00 76 1015.9
20260510133337 66 56 0.0 0.0 0.00 0.00 0.00 76 1016.0
20260510132833 65 67 0.0 0.0 0.00 0.00 0.00 77 1015.9
20260510132331 65 2 1.0 1.0 0.00 0.00 0.00 78 1015.8
20260510131828 64 27 1.0 2.0 0.00 0.00 0.00 81 1015.8
20260510131326 64 67 0.0 0.0 0.00 0.00 0.00 81 1015.8
20260510130822 63 49 0.0 0.0 0.00 0.00 0.00 80 1015.8
20260510130319 62 70 0.0 0.0 0.00 0.00 0.00 81 1015.8
20260510125815 62 70 0.0 0.0 0.00 0.00 0.00 83 1015.7
20260510125311 61 71 0.0 0.0 0.00 0.00 0.00 82 1015.8
20260510124809 61 71 0.0 0.0 0.00 0.00 0.00 84 1015.6
20260510124306 61 71 0.0 0.0 0.00 0.00 0.00 86 1015.7
20260510123801 60 71 0.0 0.0 0.00 0.00 0.00 85 1015.7
20260510123257 60 66 0.0 0.0 0.00 0.00 0.00 84 1015.7
20260510122753 59 66 0.0 0.0 0.00 0.00 0.00 86 1015.6
20260510122249 59 66 0.0 0.0 0.00 0.00 0.00 86 1015.6
20260510121746 58 66 0.0 0.0 0.00 0.00 0.00 86 1015.5
20260510121244 57 66 0.0 0.0 0.00 0.00 0.00 88 1015.3
20260510120741 57 66 0.0 0.0 0.00 0.00 0.00 89 1015.3
20260510120237 56 66 0.0 0.0 0.00 0.00 0.00 90 1015.3
20260510115733 56 66 0.0 0.0 0.00 0.00 0.00 90 1015.3
20260510115232 55 66 0.0 0.0 0.00 0.00 0.00 91 1015.5
20260510114721 55 66 0.0 0.0 0.00 0.00 0.00 92 1015.3
20260510114219 54 66 0.0 0.0 0.00 0.00 0.00 92 1015.2
20260510113714 54 66 0.0 0.0 0.00 0.00 0.00 93 1015.1
20260510113211 53 66 0.0 0.0 0.00 0.00 0.00 93 1015.0
20260510112707 53 66 0.0 0.0 0.00 0.00 0.00 93 1014.8
20260510112204 53 67 0.0 0.0 0.00 0.00 0.00 93 1014.7
20260510111659 53 67 0.0 0.0 0.00 0.00 0.00 93 1014.4
20260510111156 53 66 0.0 0.0 0.00 0.00 0.00 93 1014.6
20260510110645 53 67 0.0 0.0 0.00 0.00 0.00 93 1014.3
20260510110144 53 67 0.0 0.0 0.00 0.00 0.00 93 1014.6
20260510105639 53 67 0.0 0.0 0.00 0.00 0.00 93 1014.3
20260510105138 53 66 0.0 0.0 0.00 0.00 0.00 93 1014.6
20260510104635 53 67 0.0 0.0 0.00 0.00 0.00 93 1014.5
20260510104132 53 67 0.0 0.0 0.00 0.00 0.00 93 1014.4
20260510103629 53 66 0.0 0.0 0.00 0.00 0.00 93 1014.8
20260510103125 53 67 0.0 0.0 0.00 0.00 0.00 92 1014.4
20260510102620 53 66 0.0 0.0 0.00 0.00 0.00 92 1014.3
20260510102116 53 66 0.0 0.0 0.00 0.00 0.00 92 1014.4
20260510101615 53 66 0.0 0.0 0.00 0.00 0.00 92 1014.3
20260510101113 52 66 0.0 0.0 0.00 0.00 0.00 93 1014.0
20260510100608 52 66 0.0 0.0 0.00 0.00 0.00 92 1013.9
20260510100106 52 66 0.0 0.0 0.00 0.00 0.00 91 1014.0
20260510095602 52 66 0.0 0.0 0.00 0.00 0.00 90 1013.7
20260510095101 53 66 0.0 0.0 0.00 0.00 0.00 89 1013.7
20260510094601 53 66 0.0 0.0 0.00 0.00 0.00 88 1013.5
20260510094056 53 66 0.0 0.0 0.00 0.00 0.00 87 1013.4
20260510093553 54 66 0.0 0.0 0.00 0.00 0.00 87 1013.4
20260510093050 54 66 0.0 0.0 0.00 0.00 0.00 87 1013.2
20260510092547 54 66 0.0 0.0 0.00 0.00 0.00 87 1013.1
20260510092046 54 66 0.0 0.0 0.00 0.00 0.00 87 1013.2
20260510091543 54 66 0.0 0.0 0.00 0.00 0.00 87 1013.2
20260510091039 54 66 0.0 0.0 0.00 0.00 0.00 87 1013.2
20260510090536 54 66 0.0 0.0 0.00 0.00 0.00 87 1013.1
20260510090032 54 66 0.0 0.0 0.00 0.00 0.00 87 1013.4
20260510085527 55 66 0.0 0.0 0.00 0.00 0.00 86 1013.3
20260510085023 55 66 0.0 0.0 0.00 0.00 0.00 86 1013.4
20260510084520 56 66 0.0 0.0 0.00 0.00 0.00 85 1013.1
20260510084017 56 66 0.0 0.0 0.00 0.00 0.00 83 1012.9
20260510083514 56 66 0.0 0.0 0.00 0.00 0.00 83 1013.1
20260510083010 56 66 0.0 0.0 0.00 0.00 0.00 84 1013.0
20260510082507 56 66 0.0 0.0 0.00 0.00 0.00 84 1012.8
20260510082006 56 66 0.0 0.0 0.00 0.00 0.00 83 1012.8
20260510081502 56 66 0.0 0.0 0.00 0.00 0.00 83 1012.7
20260510080958 56 66 0.0 0.0 0.00 0.00 0.00 83 1012.5
20260510080456 56 66 0.0 0.0 0.00 0.00 0.00 84 1012.6
20260510075954 56 66 0.0 0.0 0.00 0.00 0.00 85 1012.4
20260510075451 56 66 0.0 0.0 0.00 0.00 0.00 85 1012.6
20260510074948 57 66 0.0 0.0 0.00 0.00 0.00 84 1012.5
20260510074445 57 66 0.0 0.0 0.00 0.00 0.00 82 1012.6
20260510073941 57 66 0.0 0.0 0.00 0.00 0.00 82 1012.6
20260510073437 57 66 0.0 0.0 0.00 0.00 0.00 82 1012.8
20260510072934 57 66 0.0 0.0 0.00 0.00 0.00 83 1012.8
20260510072431 57 66 0.0 0.0 0.00 0.00 0.00 82 1012.8
20260510071932 57 66 0.0 0.0 0.00 0.00 0.00 81 1013.0
20260510071429 57 66 0.0 0.0 0.00 0.00 0.00 80 1012.8
20260510070927 57 66 0.0 0.0 0.00 0.00 0.00 79 1012.9
20260510070424 57 66 0.0 0.0 0.00 0.00 0.00 81 1012.7
20260510065919 57 66 0.0 0.0 0.00 0.00 0.00 82 1012.6
20260510065416 57 66 0.0 0.0 0.00 0.00 0.00 80 1013.0
20260510064912 57 66 0.0 0.0 0.00 0.00 0.00 79 1012.6
20260510064410 57 66 0.0 0.0 0.00 0.00 0.00 79 1012.6
20260510063906 57 66 0.0 0.0 0.00 0.00 0.00 78 1012.7
20260510063402 57 66 0.0 0.0 0.00 0.00 0.00 78 1012.7
20260510062900 57 66 0.0 0.0 0.00 0.00 0.00 78 1012.5
20260510062355 58 66 0.0 0.0 0.00 0.00 0.00 77 1012.7
20260510061850 58 66 0.0 0.0 0.00 0.00 0.00 75 1012.7
20260510061348 59 66 0.0 0.0 0.00 0.00 0.00 75 1012.4
20260510060844 59 66 0.0 0.0 0.00 0.00 0.00 74 1012.5
20260510060341 59 66 0.0 0.0 0.00 0.00 0.00 73 1012.6
20260510055838 59 66 0.0 0.0 0.00 0.00 0.00 73 1012.6
20260510055336 59 66 0.0 0.0 0.00 0.00 0.00 73 1012.5
20260510054831 60 66 0.0 0.0 0.00 0.00 0.00 71 1012.5
20260510054327 60 66 0.0 0.0 0.00 0.00 0.00 70 1012.4
20260510053822 60 66 0.0 0.0 0.00 0.00 0.00 70 1012.3
20260510053317 60 66 0.0 0.0 0.00 0.00 0.00 70 1012.4
20260510052814 60 66 0.0 0.0 0.00 0.00 0.00 70 1012.3
20260510052310 60 66 0.0 0.0 0.00 0.00 0.00 69 1012.2
20260510051805 60 66 0.0 0.0 0.00 0.00 0.00 70 1012.4
20260510051302 60 66 0.0 0.0 0.00 0.00 0.00 70 1012.2
20260510050759 60 66 0.0 0.0 0.00 0.00 0.00 70 1012.2
20260510050256 60 66 0.0 0.0 0.00 0.00 0.00 71 1012.2
20260510045753 61 66 0.0 0.0 0.00 0.00 0.00 70 1012.3
20260510045249 61 66 0.0 0.0 0.00 0.00 0.00 70 1012.1
20260510044747 61 66 0.0 0.0 0.00 0.00 0.00 70 1012.2
20260510044244 61 66 0.0 0.0 0.00 0.00 0.00 70 1012.3
20260510043740 61 66 0.0 0.0 0.00 0.00 0.00 70 1012.1
20260510043237 61 66 0.0 0.0 0.00 0.00 0.00 69 1012.1
20260510042734 61 66 0.0 0.0 0.00 0.00 0.00 70 1012.3
20260510042229 62 66 0.0 0.0 0.00 0.00 0.00 69 1012.1
20260510041726 62 66 0.0 0.0 0.00 0.00 0.00 68 1012.3
20260510041224 62 66 0.0 0.0 0.00 0.00 0.00 68 1012.1
20260510040720 62 66 0.0 0.0 0.00 0.00 0.00 68 1012.2
20260510040217 62 66 0.0 0.0 0.00 0.00 0.00 68 1012.2
20260510035713 62 65 0.0 0.0 0.00 0.00 0.00 68 1012.2
20260510035209 62 65 0.0 0.0 0.00 0.00 0.00 68 1012.2
20260510034705 63 65 0.0 0.0 0.00 0.00 0.00 68 1012.1
20260510034202 62 65 0.0 0.0 0.00 0.00 0.00 67 1012.3
20260510033659 62 64 0.0 0.0 0.00 0.00 0.00 68 1012.2
20260510033157 62 64 0.0 0.0 0.00 0.00 0.00 68 1012.1
20260510032653 62 64 0.0 0.0 0.00 0.00 0.00 68 1012.3
20260510032148 63 64 0.0 0.0 0.00 0.00 0.00 68 1012.3
20260510031643 63 64 0.0 0.0 0.00 0.00 0.00 67 1012.1
20260510031140 62 64 0.0 0.0 0.00 0.00 0.00 68 1012.4
20260510030634 62 64 0.0 0.0 0.00 0.00 0.00 68 1012.2
20260510030132 63 62 0.0 0.0 0.00 0.00 0.00 71 1012.4
20260510025629 63 62 0.0 0.0 0.00 0.00 0.00 69 1012.2
20260510025126 63 61 0.0 0.0 0.00 0.00 0.00 67 1012.1
20260510024623 63 61 0.0 0.0 0.00 0.00 0.00 69 1012.2
20260510024120 63 61 0.0 0.0 0.00 0.00 0.00 69 1012.1
20260510023615 63 61 0.0 0.0 0.00 0.00 0.00 68 1012.1
20260510023114 63 61 0.0 0.0 0.00 0.00 0.00 67 1012.0
20260510022613 63 61 0.0 0.0 0.00 0.00 0.00 68 1011.8
20260510022108 63 61 0.0 0.0 0.00 0.00 0.00 68 1011.7
20260510021604 63 61 0.0 0.0 0.00 0.00 0.00 66 1011.6
20260510021102 64 61 0.0 0.0 0.00 0.00 0.00 67 1011.6
20260510020601 64 61 0.0 0.0 0.00 0.00 0.00 66 1011.7
20260510020057 64 61 0.0 0.0 0.00 0.00 0.00 65 1011.7
20260510015554 64 61 0.0 0.0 0.00 0.00 0.00 65 1011.5
20260510015050 64 61 0.0 0.0 0.00 0.00 0.00 64 1011.4
20260510014546 65 61 0.0 0.0 0.00 0.00 0.00 63 1011.3
20260510014043 65 61 0.0 0.0 0.00 0.00 0.00 62 1011.2
20260510013538 66 61 0.0 0.0 0.00 0.00 0.00 60 1011.2
20260510013034 66 61 0.0 0.0 0.00 0.00 0.00 59 1011.2
20260510012528 66 61 0.0 0.0 0.00 0.00 0.00 60 1011.2
20260510012025 67 61 0.0 0.0 0.00 0.00 0.00 60 1011.2
20260510011524 67 61 0.0 0.0 0.00 0.00 0.00 60 1011.0
20260510011020 68 61 0.0 0.0 0.00 0.00 0.00 60 1010.9
20260510010517 68 61 0.0 0.0 0.00 0.00 0.00 57 1010.8
20260510010014 68 61 0.0 0.0 0.00 0.00 0.00 57 1010.9
20260510005509 69 61 0.0 0.0 0.00 0.00 0.00 57 1010.6
20260510005008 69 61 0.0 0.0 0.00 0.00 0.00 56 1010.7
20260510004505 70 61 0.0 0.0 0.00 0.00 0.00 55 1010.6
20260510004003 70 61 0.0 0.0 0.00 0.00 0.00 55 1010.5
20260510003459 71 61 0.0 0.0 0.00 0.00 0.00 54 1010.7
20260510002954 72 61 0.0 0.0 0.00 0.00 0.00 52 1010.7
20260510002450 72 61 0.0 0.0 0.00 0.00 0.00 51 1010.6
20260510001947 73 49 0.0 0.0 0.00 0.00 0.00 51 1010.5
20260510001444 73 51 0.0 0.0 0.00 0.00 0.00 50 1010.5
20260510000942 74 51 0.0 0.0 0.00 0.00 0.00 48 1010.5
20260510000440 74 50 0.0 0.0 0.00 0.00 0.00 48 1010.3
20260509235935 75 50 0.0 0.0 0.00 0.00 0.00 43 1010.5
20260509235431 76 50 0.0 0.0 0.00 0.00 0.00 43 1010.3
20260509234928 76 50 0.0 0.0 0.00 0.00 0.00 40 1010.3
20260509234425 77 50 0.0 0.0 0.00 0.00 0.00 37 1010.1
20260509233923 77 47 0.0 0.0 0.00 0.00 0.00 39 1010.2
20260509233420 78 41 0.0 1.0 0.00 0.00 0.00 39 1009.9
20260509232916 78 38 0.0 0.0 0.00 0.00 0.00 38 1010.1
20260509232414 78 57 0.0 0.0 0.00 0.00 0.00 38 1010.0
20260509231909 79 60 0.0 0.0 0.00 0.00 0.00 35 1010.1
20260509231406 79 43 0.0 0.0 0.00 0.00 0.00 33 1010.2
20260509230904 79 43 0.0 0.0 0.00 0.00 0.00 33 1010.2
20260509230401 79 58 0.0 0.0 0.00 0.00 0.00 30 1010.1
20260509225857 80 34 0.0 1.0 0.00 0.00 0.00 31 1010.0
20260509225353 80 77 1.0 1.0 0.00 0.00 0.00 32 1010.0
20260509224849 80 27 1.0 1.0 0.00 0.00 0.00 32 1010.2
20260509224345 80 57 0.0 0.0 0.00 0.00 0.00 35 1010.1
20260509223843 80 67 0.0 0.0 0.00 0.00 0.00 33 1010.2
20260509223339 80 42 0.0 0.0 0.00 0.00 0.00 32 1010.2
20260509222836 80 48 0.0 0.0 0.00 0.00 0.00 35 1010.1
20260509222331 81 44 0.0 0.0 0.00 0.00 0.00 34 1010.0
20260509221827 81 169 1.0 1.0 0.00 0.00 0.00 35 1010.3
20260509221325 81 77 1.0 1.0 0.00 0.00 0.00 31 1010.1
20260509220825 81 42 0.0 1.0 0.00 0.00 0.00 33 1010.0
20260509220321 81 29 0.0 1.0 0.00 0.00 0.00 31 1010.1
20260509215817 82 51 0.0 0.0 0.00 0.00 0.00 35 1010.2
20260509215314 83 240 1.0 2.0 0.00 0.00 0.00 31 1010.1
20260509214811 83 57 1.0 1.0 0.00 0.00 0.00 31 1010.1
20260509214308 83 80 1.0 1.0 0.00 0.00 0.00 32 1010.0
20260509213805 83 67 1.0 1.0 0.00 0.00 0.00 32 1010.0
20260509213300 84 107 0.0 1.0 0.00 0.00 0.00 28 1009.9
20260509212758 84 40 0.0 0.0 0.00 0.00 0.00 28 1010.0
20260509212255 84 49 0.0 0.0 0.00 0.00 0.00 33 1009.8
20260509211750 84 54 0.0 0.0 0.00 0.00 0.00 33 1010.1
20260509211247 83 354 1.0 1.0 0.00 0.00 0.00 30 1009.9
20260509210744 83 73 1.0 1.0 0.00 0.00 0.00 32 1009.9
20260509210242 84 30 0.0 0.0 0.00 0.00 0.00 31 1009.9
20260509205741 83 266 2.0 2.0 0.00 0.00 0.00 34 1009.9
20260509205236 83 103 1.0 1.0 0.00 0.00 0.00 32 1010.1
20260509204732 84 349 1.0 2.0 0.00 0.00 0.00 34 1009.9
20260509204229 84 22 1.0 2.0 0.00 0.00 0.00 33 1010.0
20260509203724 84 63 1.0 1.0 0.00 0.00 0.00 33 1010.0
20260509203223 84 25 1.0 1.0 0.00 0.00 0.00 33 1010.2
20260509202718 83 35 1.0 2.0 0.00 0.00 0.00 33 1010.1
20260509202214 83 62 1.0 1.0 0.00 0.00 0.00 37 1010.1
20260509201709 82 82 0.0 1.0 0.00 0.00 0.00 34 1010.1
20260509201207 82 35 1.0 1.0 0.00 0.00 0.00 37 1010.1
20260509200703 82 54 0.0 1.0 0.00 0.00 0.00 38 1010.3
20260509200203 83 4 1.0 2.0 0.00 0.00 0.00 36 1010.5
20260509195659 84 9 0.0 1.0 0.00 0.00 0.00 33 1010.6
20260509195155 83 34 1.0 1.0 0.00 0.00 0.00 36 1010.5
20260509194654 82 50 0.0 0.0 0.00 0.00 0.00 42 1010.4
20260509194152 82 25 0.0 1.0 0.00 0.00 0.00 42 1010.6
20260509193648 82 236 2.0 2.0 0.00 0.00 0.00 40 1010.5
20260509193143 81 64 1.0 1.0 0.00 0.00 0.00 45 1010.6
20260509192640 81 13 2.0 2.0 0.00 0.00 0.00 38 1010.8
20260509192135 82 269 3.0 3.0 0.00 0.00 0.00 37 1010.8
20260509191635 81 39 0.0 1.0 0.00 0.00 0.00 38 1010.6
20260509191132 80 45 0.0 0.0 0.00 0.00 0.00 37 1010.9
20260509190629 81 23 1.0 1.0 0.00 0.00 0.00 39 1010.7
20260509190126 81 47 0.0 1.0 0.00 0.00 0.00 43 1010.9
20260509185623 80 2 1.0 2.0 0.00 0.00 0.00 40 1010.8
20260509185119 79 38 0.0 1.0 0.00 0.00 0.00 46 1011.0
20260509184618 80 321 3.0 3.0 0.00 0.00 0.00 43 1011.0
20260509184114 79 21 1.0 1.0 0.00 0.00 0.00 45 1011.1
20260509183610 79 76 1.0 1.0 0.00 0.00 0.00 44 1010.9
20260509183105 79 105 2.0 2.0 0.00 0.00 0.00 44 1010.9
20260509182602 79 313 2.0 2.0 0.00 0.00 0.00 44 1011.0
20260509182059 79 198 2.0 2.0 0.00 0.00 0.00 47 1010.8
20260509181557 79 354 1.0 2.0 0.00 0.00 0.00 46 1011.0
20260509181054 79 85 1.0 1.0 0.00 0.00 0.00 44 1010.9
20260509180550 79 56 1.0 2.0 0.00 0.00 0.00 49 1010.9
20260509180047 78 33 0.0 1.0 0.00 0.00 0.00 48 1010.9